Eagle River, WI

11:01 AM CDT on October 23, 2017 (GMT -0500)
Eagle River Union

Weather History for KEGV - November, 2010

Change the Weather History Date:

Saturday, November 13, 2010

  Actual Average Record
Temperature  
Mean Temperature 34 °F -  
Max Temperature 37 °F 32 °F 66 °F (1999)
Min Temperature 32 °F 21 °F 9 °F (2014)
Degree Days  
Heating Degree Days 30    
Moisture  
Dew Point 32 °F    
Average Humidity 94    
Maximum Humidity 100    
Minimum Humidity 46    
Precipitation  
Precipitation 0.30 in - - ()
Sea Level Pressure  
Sea Level Pressure 29.97 in    
Wind  
Wind Speed 12 mph (ENE)    
Max Wind Speed 21 mph    
Max Gust Speed 30 mph    
Visibility 6 miles    
Events Rain , Snow    
Averages and records for this station are not official NWS values.
T = Trace of Precipitation, MM = Missing Value Source: NWS Daily Summary

Daily Weather History Graph

Daily Weather History Graph

Search for Another Location

Airport or City:

Trip Planner

Search our weather history database for the weather conditions in past years. The results will help you decide how hot, cold, wet, or windy it might be!

Date:

Astronomy

Nov. 13, 2010 Rise Set
Actual Time 6:54 AM CST 4:27 PM CST
Civil Twilight 6:22 AM CST 4:59 PM CST
Nautical Twilight 5:46 AM CST 5:35 PM CST
Astronomical Twilight 5:11 AM CST 6:11 PM CST
Moon 12:44 PM CST (11/13) 11:42 PM CST (11/13)
Length of Visible Light 10h 37m
Length of Day
9h 33m
Waxing Crescent, 51% of the Moon is Illuminated
Nov 13
Waxing Crescent
Nov 21
Full
Nov 28
Last Quarter
Dec 5
New
Dec 13
First Quarter

Hourly Weather History & Observations

Time (CST) Temp. Windchill Dew Point Humidity Pressure Visibility Wind Dir Wind Speed Gust Speed Precip Events Conditions
12:14 AM 37.9 °F 31.5 °F 18.9 °F 46% 30.31 in 10.0 mi NE 9.2 mph - N/A   Overcast
12:34 AM 37.9 °F 30.5 °F 19.8 °F 48% 30.30 in 10.0 mi ENE 11.5 mph 18.4 mph N/A   Overcast
12:54 AM 37.8 °F 30.7 °F 21.0 °F 51% 30.29 in 10.0 mi NE 10.4 mph - N/A   Overcast
1:34 AM 37.4 °F 30.8 °F 22.8 °F 56% 30.29 in 10.0 mi ENE 9.2 mph - N/A   Overcast
1:54 AM 37.4 °F 29.8 °F 23.0 °F 56% 30.29 in 10.0 mi ENE 11.5 mph 21.9 mph N/A   Overcast
2:14 AM 34.9 °F 24.9 °F 25.5 °F 69% 30.30 in 4.0 mi NE 16.1 mph 23.0 mph N/A Snow Light Snow
2:34 AM 34.0 °F 25.5 °F 27.3 °F 77% 30.31 in 3.0 mi East 11.5 mph 20.7 mph N/A Snow Light Snow
2:54 AM 32.9 °F 22.8 °F 29.3 °F 87% 30.28 in 2.0 mi ENE 15.0 mph - N/A Snow Light Snow
3:14 AM 32.2 °F 23.8 °F 32.4 °F 100% 30.27 in 2.5 mi ENE 10.4 mph - N/A Snow Light Snow
3:34 AM 32.5 °F 24.2 °F 32.5 °F 100% 30.26 in 10.0 mi NE 10.4 mph - N/A Snow Light Snow
3:54 AM 32.5 °F 26.2 °F 32.5 °F 100% 30.25 in 4.0 mi ENE 6.9 mph - N/A Snow Light Snow
4:34 AM 32.2 °F 23.2 °F 32.2 °F 100% 30.23 in 1.5 mi East 11.5 mph 18.4 mph N/A Snow Light Snow
4:53 AM 32.0 °F 25.6 °F 32.2 °F 100% 30.22 in 1.8 mi ENE 6.9 mph 16.1 mph N/A Snow Light Snow
5:13 AM 32.0 °F 23.6 °F 32.2 °F 100% 30.20 in 4.0 mi ENE 10.4 mph 16.1 mph N/A Snow Light Snow
5:33 AM 32.4 °F 23.0 °F 32.4 °F 100% 30.18 in 3.0 mi ENE 12.7 mph - N/A Snow Light Snow
6:13 AM 32.4 °F 24.0 °F 32.5 °F 100% 30.17 in 1.5 mi East 10.4 mph 17.3 mph N/A Snow Light Snow
6:33 AM 32.5 °F 24.2 °F 32.5 °F 100% 30.16 in 1.5 mi East 10.4 mph 16.1 mph N/A Snow Light Snow
6:53 AM 32.4 °F 23.5 °F 32.5 °F 100% 30.15 in 0.8 mi East 11.5 mph - N/A Snow Snow
7:13 AM 32.4 °F 24.0 °F 32.5 °F 100% 30.15 in 0.5 mi East 10.4 mph - N/A Snow Snow
7:53 AM 32.2 °F 21.8 °F 32.4 °F 100% 30.12 in 0.2 mi ENE 15.0 mph 20.7 mph N/A Snow Snow
8:13 AM 32.4 °F 22.1 °F 32.5 °F 100% 30.10 in 1.2 mi East 15.0 mph 21.9 mph N/A Snow Light Snow
8:33 AM 32.5 °F 22.7 °F 32.5 °F 100% 30.09 in 2.5 mi ENE 13.8 mph 24.2 mph N/A   Overcast
11:34 AM 33.4 °F 21.7 °F 33.8 °F 100% 29.95 in 10.0 mi East 20.7 mph 26.5 mph N/A Rain Light Rain
11:53 AM 33.8 °F 23.2 °F 34.0 °F 100% 29.94 in 10.0 mi East 17.3 mph 25.3 mph N/A   Overcast
12:13 PM 34.0 °F 23.0 °F 34.2 °F 100% 29.91 in 10.0 mi ENE 18.4 mph 26.5 mph N/A   Overcast
12:33 PM 34.0 °F 24.2 °F 34.2 °F 100% 29.90 in 10.0 mi East 15.0 mph 27.6 mph N/A   Overcast
12:53 PM 34.0 °F 23.8 °F 34.2 °F 100% 29.89 in 10.0 mi East 16.1 mph 24.2 mph N/A Rain Light Rain
1:33 PM 33.8 °F 23.2 °F 34.0 °F 100% 29.86 in 10.0 mi East 17.3 mph 25.3 mph 0.04 in Rain Light Rain
1:53 PM 33.8 °F 22.8 °F 33.8 °F 100% 29.84 in 7.0 mi East 18.4 mph 29.9 mph 0.06 in Rain Light Rain
2:13 PM 33.8 °F 25.3 °F 33.8 °F 100% 29.84 in 7.0 mi East 11.5 mph 23.0 mph 0.01 in Rain Light Rain
2:33 PM 33.4 °F 23.1 °F 33.8 °F 100% 29.82 in 4.0 mi East 16.1 mph 20.7 mph 0.05 in Rain Rain
2:53 PM 33.4 °F 23.1 °F 33.6 °F 100% 29.80 in 4.0 mi East 16.1 mph 24.2 mph 0.08 in Rain Light Rain
3:13 PM 33.4 °F 23.1 °F 33.8 °F 100% 29.79 in 7.0 mi East 16.1 mph 20.7 mph 0.01 in Rain Light Rain
3:53 PM 33.8 °F 24.8 °F 34.0 °F 100% 29.77 in 10.0 mi East 12.7 mph 19.6 mph 0.03 in   Overcast
4:13 PM 34.0 °F 26.0 °F 34.2 °F 100% 29.78 in 10.0 mi East 10.4 mph 20.7 mph 0.01 in   Drizzle
4:33 PM 33.8 °F 24.3 °F 34.0 °F 100% 29.77 in 1.2 mi East 13.8 mph 20.7 mph 0.04 in Rain Rain
4:53 PM 34.0 °F 26.0 °F 34.2 °F 100% 29.78 in 3.0 mi East 10.4 mph 16.1 mph 0.06 in Rain Light Rain
5:13 PM 34.2 °F 25.7 °F 34.3 °F 100% 29.77 in 2.5 mi East 11.5 mph - 0.01 in   Heavy Drizzle
5:33 PM 34.2 °F 26.8 °F 34.3 °F 100% 29.75 in 3.0 mi East 9.2 mph 16.1 mph 0.03 in   Drizzle
5:53 PM 34.7 °F 25.9 °F 34.7 °F 100% 29.74 in 4.0 mi East 12.7 mph - 0.04 in   Light Drizzle
6:13 PM 34.9 °F 27.7 °F 35.1 °F 100% 29.72 in 4.0 mi East 9.2 mph - 0.01 in   Light Drizzle
6:33 PM 34.9 °F 27.1 °F 35.1 °F 100% 29.71 in 5.0 mi East 10.4 mph 17.3 mph 0.02 in   Light Drizzle
6:53 PM 35.2 °F 28.1 °F 35.4 °F 100% 29.70 in 10.0 mi East 9.2 mph - 0.03 in   Light Drizzle
7:13 PM 35.6 °F 28.0 °F 35.6 °F 100% 29.69 in 10.0 mi East 10.4 mph 17.3 mph N/A Rain Light Rain
7:33 PM 35.6 °F 28.6 °F 35.8 °F 100% 29.68 in 7.0 mi East 9.2 mph 17.3 mph N/A   Overcast
7:53 PM 35.6 °F 28.0 °F 35.8 °F 100% 29.67 in 5.0 mi East 10.4 mph - N/A   Overcast
8:13 PM 35.8 °F 28.8 °F 36.0 °F 100% 29.65 in 5.0 mi East 9.2 mph - N/A   Overcast
8:33 PM - - - N/A% 29.65 in 4.0 mi East 9.2 mph - N/A   Unknown
8:53 PM - - - N/A% 29.64 in 3.0 mi East 6.9 mph - N/A   Overcast
9:14 PM 36.5 °F 30.3 °F 36.5 °F 100% 29.63 in 3.0 mi East 8.1 mph - N/A   Overcast
9:33 PM 36.5 °F 31.0 °F 36.7 °F 100% 29.62 in 3.0 mi East 6.9 mph - N/A   Overcast
10:13 PM 36.5 °F 32.7 °F 36.7 °F 100% 29.62 in 7.0 mi ESE 4.6 mph - N/A   Overcast
10:34 PM 36.7 °F 32.0 °F 36.9 °F 100% 29.61 in 3.0 mi ESE 5.8 mph - N/A   Overcast
10:54 PM 36.9 °F 34.3 °F 37.0 °F 100% 29.61 in 2.0 mi SSE 3.5 mph - N/A   Overcast
11:14 PM 36.9 °F 34.3 °F 37.0 °F 100% 29.61 in 4.0 mi SSE 3.5 mph - N/A   Overcast
11:33 PM 36.7 °F 32.9 °F 36.9 °F 100% 29.60 in 5.0 mi South 4.6 mph - N/A   Overcast
11:53 PM 36.5 °F 33.9 °F 36.7 °F 100% 29.60 in 3.0 mi SSW 3.5 mph - N/A Rain Rain